This is the latest recevied weather packets stored in our database for station/object VK2XSE. If no packets are shown the sender has not sent any weather packets the latest 10 day(s).
| Time | Temp. | Humidity | Pressure | Rain* | Wind** | Luminosity | Snow |
|---|---|---|---|---|---|---|---|
| 1777826117 | 12.78° C | 93% | 1015.5 hPa | 0.25 mm | - | 0 W/m² | - |
| 1777825517 | 12.78° C | 93% | 1015.7 hPa | 0.25 mm | - | 0 W/m² | - |
| 1777824917 | 12.78° C | 93% | 1015.6 hPa | 0.25 mm | - | 0 W/m² | - |
| 1777824317 | 12.78° C | 93% | 1015.6 hPa | 0.25 mm | - | 0 W/m² | - |
| 1777823717 | 12.78° C | 93% | 1015.6 hPa | 0.25 mm | - | 0 W/m² | - |
| 1777823117 | 12.78° C | 93% | 1015.7 hPa | 0.51 mm | - | 0 W/m² | - |
| 1777822517 | 13.33° C | 93% | 1015.7 hPa | 0.51 mm | - | 0 W/m² | - |
| 1777821917 | 13.33° C | 93% | 1015.8 hPa | 1.02 mm | - | 0 W/m² | - |
| 1777821317 | 13.33° C | 93% | 1015.8 hPa | 1.52 mm | - | 0 W/m² | - |
| 1777820717 | 13.33° C | 93% | 1015.7 hPa | 1.52 mm | - | 0 W/m² | - |
| 1777820117 | 13.33° C | 93% | 1015.9 hPa | 1.52 mm | - | 0 W/m² | - |
| 1777819517 | 13.33° C | 93% | 1016.2 hPa | 1.52 mm | - | 0 W/m² | - |
| 1777818917 | 13.33° C | 93% | 1016.4 hPa | 1.02 mm | - | 0 W/m² | - |
| 1777818317 | 13.89° C | 93% | 1016.4 hPa | 0.76 mm | - | 0 W/m² | - |
| 1777817717 | 13.89° C | 93% | 1015.9 hPa | 1.02 mm | - | 0 W/m² | - |
| 1777817117 | 13.89° C | 93% | 1015.7 hPa | 1.27 mm | - | 0 W/m² | - |
| 1777816517 | 13.89° C | 93% | 1015.6 hPa | 1.27 mm | - | 0 W/m² | - |
| 1777815917 | 13.89° C | 93% | 1015.9 hPa | 1.27 mm | - | 0 W/m² | - |
| 1777815317 | 13.33° C | 92% | 1015.9 hPa | 1.27 mm | - | 0 W/m² | - |
| 1777814717 | 13.89° C | 93% | 1016 hPa | 1.27 mm | - | 0 W/m² | - |
| 1777814117 | 13.89° C | 93% | 1016.4 hPa | 0.76 mm | - | 0 W/m² | - |
| 1777813517 | 13.89° C | 92% | 1015.7 hPa | 0.51 mm | - | 0 W/m² | - |
| 1777812916 | 13.33° C | 92% | 1015.9 hPa | 0.51 mm | - | 0 W/m² | - |
| 1777812317 | 13.33° C | 92% | 1015.7 hPa | 0.51 mm | - | 0 W/m² | - |
| 1777811716 | 13.33° C | 91% | 1016.3 hPa | 1.52 mm | - | 0 W/m² | - |
* Rain latest hour (hover to see other rain measurements)
** Current wind speed in m/s (hover to see current wind gust speed)